Regional Weather Roundup
Issued by NWS

Home | Current Version | Previous Version | Text Only | Print | Product List | Glossary On
Versions: 1 2 3 4 5 6 7 8 9 10 11 12 13 14 15 16 17 18 19 20 21 22 23 24 25 26 27 28 29 30 31 32 33 34 35 36 37 38 39 40 41 42 43 44 45 46 47 48 49 50
000
ASUS45 KTFX 242210
RWRMT
MONTANA REGIONAL WEATHER ROUNDUP
NATIONAL WEATHER SERVICE GREAT FALLS MT
400 PM MDT FRI MAR 24 2017

NOTE: "FAIR" INDICATES FEW OR NO CLOUDS BELOW 12000 FEET WITH NO
SIGNIFICANT WEATHER AND/OR OBSTRUCTIONS TO VISIBILITY.

MTZ001>007-043-242300-
WEST OF THE DIVIDE

CITY           SKY/WX    TMP DP  RH WIND       PRES   REMARKS
KALISPELL      CLOUDY    45  27  49 CALM      29.81F
MISSOULA       CLOUDY    53  32  44 NW13      29.80F
BUTTE          CLOUDY    54  20  26 S24G33    29.86F
MULLAN PASS    SNOW      32  31  96 S9G20     29.79S VSB 1/4 WCI  24
ANACONDA         N/A     55  18  22 SW8       29.81F
DEER LODGE       N/A     57  21  24 S18G25    29.80F
EUREKA           N/A     43  28  56 SW5       29.80F
HAMILTON         N/A     59  27  29 SW15G22   29.77S
PLAINS           N/A     54  34  46 SW8       29.83F
RONAN            N/A     47  30  51 N5        29.87F
$$

MTZ008-052>055-242300-
SOUTHWEST MONTANA

CITY           SKY/WX    TMP DP  RH WIND       PRES   REMARKS
BOZEMAN        SUNNY     61  16  17 S12       29.86F
DILLON         CLOUDY    55  21  26 S24G33    29.89F
W YELLOWSTONE  CLOUDY    43  18  36 S23G32    30.06F
ENNIS          SUNNY     52  19  28 S33G45    29.98F
THREE FORKS      N/A     61  61 100 S26       29.85F
TWIN BRIDGES     N/A     57  19  23 SE21      29.89F
$$

MTZ009-010-012-014-046-048-049-054-242300-
EAST SLOPES AND CENTRAL MONTANA

CITY           SKY/WX    TMP DP  RH WIND       PRES   REMARKS
CUT BANK       CLOUDY    57  21  24 W10       29.72F
GREAT FALLS    CLOUDY    64  17  16 S20G33    29.74F
MALMSTROM AFB  MOSUNNY   65  18  16 SW22G36   29.75F
HELENA         SUNNY     62  17  17 S17G31    29.78F
AUGUSTA          N/A     60  17  18 SW16      29.74F
BOWMANS CRNR     N/A     58  20  22 S18G28    29.72F
CHOTEAU          N/A     63  19  19 S18       29.74F
CONRAD           N/A     62  33  33 SE16      29.77F
FAIRFIELD      PTSUNNY   61  19  19 S17G23    29.73F
POWER            N/A     62  16  16 S20G28    29.73F
RAYNESFORD       N/A     64  13  13 SW18G28   29.77F
$$

MTZ011-013-016-021-045-047-050-051-242300-
NORTH CENTRAL MONTANA

CITY           SKY/WX    TMP DP  RH WIND       PRES   REMARKS
HAVRE          CLOUDY    65  24  21 SW20G25   29.76F
LEWISTOWN      SUNNY     62  15  16 S9        29.82F
N BAR RANCH      N/A     59  19  21 S20G35    29.88F
CHINOOK          N/A     66  23  19 SE10G20   29.77F
DENTON           N/A     63  19  18 S29G35    29.75F
FORT BENTON      N/A     68  14  12 N9        29.75F
GEYSER           N/A     62  11  13 NW3       29.77F
GRASS RANGE      N/A     63  18  17 S20       29.79F
STANFORD         N/A     60  17  19 S22G31    29.80F
WINIFRED         N/A     63  17  17 SW22G30   29.80F
$$

MTZ017>020-022>027-061-062-242300-
NORTHEAST MONTANA

CITY           SKY/WX    TMP DP  RH WIND       PRES   REMARKS
GLASGOW        PTSUNNY   62  27  26 S20       29.89F
JORDAN           N/A     64  28  25 S15G25    29.89F
SIDNEY         SUNNY     64  24  21 VRB6      29.98F
WOLF POINT     SUNNY     67  26  21 SW13G18   29.92F
MALTA          SUNNY     63  32  31 S16G22    29.83F
PLENTYWOOD       N/A     57  36  44 SE13      29.97F
POPLAR           N/A     64  27  24 S14       29.93F
$$

MTZ028>42-056>058-242300-
SOUTHCENTRAL AND SOUTHEAST MONTANA

CITY           SKY/WX    TMP DP  RH WIND       PRES   REMARKS
BAKER          SUNNY     60  21  22 S10       30.02F
BILLINGS       MOSUNNY   64  20  18 S14       29.88F
LIVINGSTON     SUNNY     62  17  17 SW29G36   29.86F
MILES CITY     SUNNY     65  30  27 SE15G24   29.94F
BIG TIMBER     SUNNY     61  23  23 N7        29.89F
EKALAKA          N/A     58  24  27 SE8       30.00F
FORSYTH          N/A     64  28  25 S15       29.92F
HARLOWTON        N/A     62  21  20 S26G32    29.84F
LAUREL           N/A     65  27  24 SE18      29.88F
$$

REGIONAL REPORTS...DAKOTAS

CITY           SKY/WX    TMP DP  RH WIND       PRES   REMARKS
WILLISTON      SUNNY     59  32  36 SE13G22   30.01F
MINOT          SUNNY     41  30  65 E13       30.14F
DICKINSON      SUNNY     57  33  40 SE10      30.03F
BEACH            N/A    N/A N/A N/A MISG        N/A
TIOGA            N/A     46  41  81 SE16      30.07F
WATFORD CITY     N/A     55  37  50 SE16      30.02F
BISMARCK       SUNNY     47  34  60 E12       30.15F
GRAND FORKS    CLOUDY    36  28  73 N9        30.22F WCI  29
FARGO          CLOUDY    38  32  79 N17       30.19R WCI  28
BUFFALO SD       N/A     61  32  33 S7        29.98F
RAPID CITY     SUNNY     61  30  31 NE12      30.06F
$$

REGIONAL REPORTS...WYOMING/IDAHO/WASHINGTON

CITY           SKY/WX    TMP DP  RH WIND       PRES   REMARKS
GILLETTE       SUNNY     58  29  33 S10G17    30.03F
SHERIDAN       SUNNY     62  31  31 E14       29.95F
BUFFALO WY     SUNNY     61  25  25 S12G18    29.98F
CODY           SUNNY     60  19  20 S13G18    29.96F
YELLOWSTONE LA   N/A     41  15  35 VRB6      30.09F
IDAHO FALLS    SUNNY     57  23  26 SW21G28   30.04F
SALMON         CLOUDY    59  25  27 SW21G31   29.84S
BOISE          LGT RAIN  50  39  66 E21       29.97R
SPOKANE        LGT RAIN  43  40  89 S13       29.82S FOG
$$

REGIONAL REPORTS...ALBERTA

CITY           SKY/WX    TMP DP  RH WIND       PRES   REMARKS
EDMONTON       CLOUDY    36  30  80 SE16G22   29.71F WCI  26
CALGARY        PTSUNNY   57  25  28 S17G25    29.58F
LETHBRIDGE     PTSUNNY   59  25  27 SW18      29.68F
WATERTON GATE    N/A     45  30  57 SW21G30     N/A
CARDSTON         N/A     54  25  32 SW15G24     N/A
MILK RIVER       N/A     59  21  23 S21G29      N/A
$$

REGIONAL REPORTS...SASKATCHEWAN

CITY           SKY/WX    TMP DP  RH WIND       PRES   REMARKS
SWIFT CURRENT  MOSUNNY   54  27  35 S16G22    29.83F
REGINA         CLOUDY    41  34  75 SE24G31   30.00F
SASKATOON      CLOUDY    45  28  53 E16G24    29.96F
CYPRESS HILLS    N/A     48  21  34 S15G21      N/A
VAL MARIE        N/A     59  25  27 S21         N/A
ROCKGLEN         N/A     59  25  27 S21G29      N/A
ASSINIBOIA       N/A     34  28  80 E13G20      N/A  WCI  25
$$



USA.gov is the U.S. government's official web portal to all federal, state and local government web resources and services.